STARLINK-2470, 48334

Orbit data source: Space-Track

STARLINK-2470, 48334 is a payload satellite owned by SpaceX/Seattle (US) in LEO that was launched on Thu, 29 Apr 2021 UTC via an FALCON 9 launch vehicle from the Air Force Eastern Test Range (AFETR). Payload-class satellites include a variety of spacecraft equipped with specific instruments for various scientific and technological missions. These include communications satellites like Starlink; space stations such as the ISS; scientific satellites like the Hubble; Earth observation satellites from companies like Planet Labs, Umbra, and HawkEye 360; GPS; miniature CubeSats for education and research; and military/defense satellites.

Loading next visibility...
Identifier
48334, 2021-036BL
Orbit
LEO
Country
Flag of USUS
Related business
Manufacturer
SpaceX/Seattle
Mission
Operational Commercial Communications
Bus & Motor
STARLINK, Unknown motor
Mass
260 kg wet, ~248 kg dry
Launch date (UTC)
2021-04-29 (5 years ago)
Launch vehicle
FALCON 9
Launch site
Air Force Eastern Test Range (AFETR)
Object type
Payload
Rocket body
Debris
Shape & HBR
Box + 1 Pan, 10.1 m
Radar Cross Section
13.562 m², Large (>1 m²)

Expand to show TLE details & history
Last TLE update: 19 hours ago

TLE from 19 hours ago
0 STARLINK-2470
1 48334U 21036BL  26036.95290002  .00001422  00000-0  11436-3 0  9995
2 48334  53.0554 244.0893 0001498  84.7927 275.3233 15.06387734263252
Epoch: 2026-02-05T22:52Z
TLE epoch observation values (Epoch: 2026-02-05T22:52:10.561Z)
Latitude
-0.00003°
Longitude
124.94754°
Altitude
548.032 km
Speed
7.589 km/s
True Right ascension
16h 16m 21s
True Declination
0° 00' 00"
Sunlit
Object was in daylight at epoch
Visualization orbit readout
Latitude
Unknown
Longitude
Unknown
Altitude
Unknown
Speed
Unknown
Apparent Right ascension
Unknown
Apparent Declination
Unknown
Sunlit
N/A
Visualization observer readout
Local Sidereal Time
19:45:15
Azimuth
Unknown
Elevation
Unknown
Doppler factor
Unknown
Orbital elements
Apogee altitude
548.557 km
Perigee altitude
546.482 km
Semi-major axis
6,925.657 km
Eccentricity
0.00015
Inclination
53.0554°
RAAN
244.0893°
Arg. of periapsis
84.7927°
True anomaly
275.30621°
Mean anomaly
275.3233°
Eccentric anomaly
275.31475°
Mean motion
3.76575 °/min
Orbital period
95.6 mins
BSTAR
0.00011436
Loading maneuver chart data...
Computing Atmospheric mass density...
Loading historical data...
Loading historical data...
Loading historical data...
Loading historical data...
Loading historical data...
Loading historical data...
Loading historical data...

Documentation

Showing up to 5 results
|